EHI
0 0 0 0 0 0 0 0 0 0 0 0 0 0 0 0 0 0 0 0 0 0 0 0 0 0 0 0 0 0 0 0 0 0 0 0 0 0 0 0 0 0 0
0 0 0 0 0 0 0 0 0 0 0 0 0 0 0 0 0 0 0 0 0 0 0 0 0 0 0 0 0 0 0 0 0 0 0 0 0 0 0 0 0 0 0
0 0 0 0 0 0 0 0 0 0 0 0 0 0 0 0 0 0 0 0 0 0 0 0 0 0 0 0 0 0 0 0 0 0 0 0 0 0 0 0 0 0 0
0 0 0 0 0 0 0 0 0 0 0 0 0 0 0 0 0 0 0 0 0 0 0 0 0 0 0 0 0 0 0 0 0 0 0 0 0 0 0 0 0 0 0
0 0 0 0 0 0 0 0 0 0 0 0 0 0 0 0 0 0 0 0 0 0 0 0 0 0 0 0 0 0 0 0 0 0 0 0 0 0 0 0 0 0 0
0 0 0 0 0 0 0 0 0 0 0 0 0 0 0 0 0 0 0 0 0 0 0 0 0 0 0 0 0 0 0 0 0 0 0 0 0 0 0 0 0 0 0
0 0 0 0 0 0 0 0 0 0 0 0 0 0 0 0 0 0 0 0 0 0 0 0 0 0 0 0 0 0 0 0 0 0 0 0 0 0 0 0 0 0 0
0 0 0 0 0 0 0 0 0 0 0 0 0 0 0 0 0 0 0 0 0 0 0 0 0 0 0 0 0 0 0 0 0 0 0 0 0 0 0 0 0 0 0
0 0 0 0 0 0 0 0 0 0 0 0 0 0 0 0 0 0 0 0 0 0 0 0 0 0 0 0 0 0 0 0 0 0 0 0 0 0 0 0 0 0 0
0 0 0 0 0 0 0 0 0 0 0 0 0 0 0 0 0 0 0 0 0 0 0 0 0 0 0 0 0 0 0 0 0 0 0 0 0 0 0 0 0 0 0
0 0 0 0 0 0 0 0 0 0 0 0 0 0 0 0 0 0 0 0 0 0 0 0 0 0 0 0 0 0 0 0 0 0 0 0 0 0 0 0 0 0 0
0 0 0 0 0 0 0 0 0 0 0 0 0 0 0 0 0 0 0 0 0 0 0 0 0 0 0 0 0 0 0 0 0 0 0 0 0 0 0 0 0 0 0
0 0 0 0 0 0 0 0 0 0 0 0 0 0 0 0 0 0 0 0 0 0 0 0 0 0 0 0 0 0 0 0 0 0 0 0 0 0 0 0 0 0 0
0 0 0 0 0 0 0 0 0 0 0 0 0 0 0 0 0 0 0 0 0 0 0 0 0 0 0 0 0 0 0 0 0 0 0 0 0 0 0 0 0 0 0
0 0 0 0 0 0 0 0 0 0 0 0 0 0 0 0 0 0 0 0 0 0 0 0 0 0 0 0 0 0 0 0 0 0 0 0 0 0 0 0 0 0 0
0 0 0 0 0 0 0 0 0 0 0 0 0 0 0 0 0 0 0 0 0 0 0 0 0 0 0 0 0 0 0 0 0 0 0 0 0 0 0 0 0 0 0
0 0 0 0 0 0 0 0 0 0 0 0 0 0 0 0 0 0 0 0 0 0 0 0 0 0 0 0 0 0 0 0 0 0 0 0 0 0 0 0 0 0 0
0 0 0 0 0 0 0 0 0 0 0 0 0 0 0 0 0 0 0 0 0 0 0 0 0 0 0 0 0 0 0 0 0 0 0 0 0 0 0 0 0 0 0
0 0 0 0 0 0 0 0 0 0 0 0 0 0 0 0 0 0 0 0 0 0 0 0 0 0 0 0 0 0 0 0 0 0 0 0 0 0 0 0 0 0 0
0 0 0 0 0 0 0 0 0 0 0 0 0 0 0 0 0 0 0 0 0 0 0 0 0 0 0 0 0 0 0 0 0 0 0 0 0 0 0 0 0 0 0
0 0 0 0 0 0 0 0 0 0 0 0 0 0 0 0 0 0 0 0 0 0 0 0 0 0 0 0 0 0 0 0 0 0 0 0 0 0 0 0 0 0 0
0 0 0 0 0 0 0 0 0 0 0 0 0 0 0 0 0 0 0 0 0 0 0 0 0 0 0 0 0 0 0 0 0 0 0 0 0 0 0 0 0 0 0
0 0 0 0 0 0 0 0 0 0 0 0 0 0 0 0 0 0 0 0 0 0 0 0 0 0 0 0 0 0 0 0 0 0 0 0 0 0 0 0 0 0 0
0 0 0 0 0 0 0 0 0 0 0 0 0 0 0 0 0 0 0 0 0 0 0 0 0 0 0 0 0 0 0 0 0 0 0 0 0 0 0 0 0 0 0
0 0 0 0 0 0 0 0 0 0 0 0 0 0 0 0 0 0 0 0 0 0 0 0 0 0 0 0 0 0 0 0 0 0 0 0 0 0 0 0 0 0 0
0 0 0 0 0 0 0 0 0 0 0 0 0 0 0 0 0 0 0 0 0 0 0 0 0 0 0 0 0 0 0 0 0 0 0 0 0 0 0 0 0 0 0
Wind_Speed
13 13 13 13 11 10 9 9 9 9 10 10 11 12 13 14 14 15 16 17 17 18 19 20 20 21 21 21 22 23 23 23 23 23 22 22 23 24 24 25 23 17 25
15 15 15 14 12 11 10 9 9 9 9 10 11 12 12 13 14 14 15 16 16 17 18 19 19 19 20 20 21 21 21 21 21 20 20 18 21 23 24 24 24 18 24
16 14 16 15 13 12 10 10 9 9 9 9 10 11 11 12 12 13 14 15 15 16 17 17 18 18 18 19 19 19 19 19 19 17 17 14 15 22 23 23 23 23 24
15 13 14 16 14 12 11 10 9 9 9 9 9 10 10 11 11 12 13 14 14 15 16 16 16 17 17 18 18 19 18 18 16 15 11 12 13 20 22 22 23 23 23
14 13 14 16 15 13 12 10 10 9 9 9 9 9 10 10 10 11 12 12 13 13 14 14 15 16 16 17 17 18 18 16 14 13 11 11 11 19 22 22 22 22 22
15 14 14 16 15 14 12 11 10 9 9 9 8 8 9 9 9 10 11 11 11 12 13 13 14 14 15 16 16 17 17 16 12 11 11 11 12 20 22 22 22 22 22
15 14 14 17 16 14 13 12 11 10 9 9 9 8 8 8 9 9 9 9 10 10 11 12 13 13 14 15 15 16 17 15 11 10 10 11 15 22 22 22 22 22 22
14 13 12 17 16 15 14 13 12 11 10 9 9 8 8 8 7 7 8 8 8 9 10 11 11 12 13 14 15 15 16 15 10 10 10 11 19 22 22 22 22 22 22
14 13 12 14 15 15 14 14 13 12 11 10 9 8 8 7 7 7 6 7 7 7 8 9 10 11 12 13 13 14 14 14 11 8 10 9 19 21 21 22 22 22 22
14 14 14 13 13 13 13 14 14 12 12 11 10 9 8 7 6 6 5 6 6 6 7 8 9 9 10 11 12 13 12 9 10 9 7 11 20 21 22 22 22 22 23
15 15 14 14 13 12 12 13 14 13 12 12 11 10 8 5 5 4 5 4 5 5 6 7 7 7 6 7 10 10 7 6 8 6 6 15 20 21 21 22 22 23 23
21 19 16 15 14 13 10 10 9 9 10 10 8 9 6 5 4 4 6 4 4 4 3 5 5 3 3 4 5 6 5 8 6 6 6 15 18 19 20 21 22 22 23
20 19 17 16 15 14 10 9 7 6 7 9 10 10 7 6 5 5 4 5 4 4 2 1 1 2 3 4 4 5 6 6 5 5 7 14 17 18 19 20 20 21 22
20 21 19 18 16 15 12 10 9 8 7 7 9 11 8 5 6 5 4 4 4 3 3 2 1 1 2 4 5 5 6 5 5 5 6 13 16 17 19 19 20 20 21
20 20 20 20 18 16 13 10 10 10 9 10 9 10 10 7 7 7 5 5 5 4 4 3 2 2 3 3 4 5 6 7 7 7 6 11 14 16 18 18 19 20 21
22 21 20 21 20 18 14 12 11 10 10 10 10 12 13 9 8 8 7 6 6 5 4 4 3 3 3 3 5 6 7 8 8 8 8 9 13 15 16 17 18 19 20
22 21 22 21 21 20 18 16 12 10 11 10 10 13 14 12 11 9 8 7 7 6 6 5 5 4 4 5 6 7 7 8 9 10 9 8 8 12 15 16 17 18 20
20 21 21 18 20 21 18 16 12 11 12 11 11 11 15 15 13 10 9 8 8 7 6 6 5 5 5 5 6 6 6 7 10 10 9 9 8 8 11 15 16 18 20
21 21 21 21 22 21 19 15 14 12 13 12 11 11 14 16 15 12 10 9 9 8 7 6 6 6 6 6 6 7 8 9 10 10 11 11 10 10 9 12 16 18 19
19 20 20 21 21 20 16 14 13 14 13 12 12 13 16 15 16 14 10 11 11 9 8 8 8 7 6 6 6 8 9 10 9 10 10 10 10 11 11 11 11 12 18
19 20 21 21 21 18 15 15 15 15 14 13 13 16 17 17 17 16 11 12 12 11 11 11 9 9 8 6 7 8 9 11 10 9 8 9 10 11 11 12 10 10 9
21 21 22 22 22 22 17 15 13 13 12 14 13 16 18 19 18 15 16 13 13 11 13 12 11 8 7 7 6 5 6 6 8 8 8 9 10 10 11 12 12 13 12
20 22 19 22 22 22 20 13 11 11 10 12 16 15 18 20 20 18 19 16 14 14 12 14 13 13 9 8 8 7 6 5 4 6 10 9 10 9 10 11 13 14 15
18 17 19 20 21 20 20 18 20 17 17 17 14 14 17 20 21 20 19 19 16 14 14 14 14 12 12 9 8 9 9 7 6 6 6 8 10 12 12 11 12 14 15
14 15 16 18 19 20 21 21 21 20 18 13 14 17 18 18 21 21 20 19 18 15 16 15 14 14 12 11 9 8 9 9 11 9 9 9 9 10 11 12 12 12 14
11 13 15 17 19 19 21 22 24 24 21 18 18 16 15 14 15 22 21 20 19 16 17 16 15 16 13 13 11 10 9 8 8 10 11 12 11 11 12 11 12 12 12
Wind_Direction
161 159 160 153 144 136 124 111 99 89 81 76 72 69 66 62 59 57 55 53 52 50 49 48 47 45 45 47 49 48 43 38 34 31 29 26 23 25 27 25 21 19 18
154 158 160 155 148 140 130 119 107 97 88 81 76 72 69 64 61 59 56 54 52 50 49 49 47 45 45 46 48 48 44 39 36 33 30 26 21 23 26 23 20 17 16
153 158 158 156 151 145 137 127 117 106 96 88 82 77 73 68 63 61 58 55 54 52 50 48 46 44 44 44 45 47 45 39 37 34 31 24 16 19 23 22 19 16 13
157 161 158 155 155 151 145 137 127 115 105 96 88 82 77 72 65 62 59 56 54 52 51 48 45 43 42 42 41 43 43 38 35 33 31 23 13 14 19 19 16 14 12
162 163 156 159 159 156 151 144 135 125 115 105 95 88 83 77 69 66 61 58 55 52 50 48 45 41 39 39 38 39 39 35 31 32 30 21 12 11 16 16 13 11 9
166 165 161 165 164 161 157 151 144 136 126 115 105 96 89 83 75 69 65 59 56 52 49 47 44 40 37 37 36 35 34 30 25 28 23 17 9 7 11 11 10 7 5
169 169 167 169 169 167 164 159 153 147 137 126 116 106 97 91 81 74 71 63 57 53 49 47 44 39 35 34 34 32 30 25 23 24 18 13 5 3 6 6 5 2 1
171 172 173 175 175 174 171 168 163 157 148 137 127 117 107 99 91 81 76 70 61 55 50 47 44 39 32 31 30 28 24 19 16 18 15 8 2 359 360 360 359 357 356
179 180 181 181 179 180 179 176 172 166 158 148 138 128 118 109 100 87 81 77 67 57 53 49 45 40 31 29 28 25 19 14 12 13 8 2 355 354 354 354 353 351 350
188 190 188 188 184 183 182 182 179 174 168 159 148 138 129 120 113 102 100 86 75 60 54 50 45 42 32 27 25 22 15 5 10 6 4 355 350 348 348 348 346 345 343
197 197 196 193 188 187 185 181 183 181 177 169 160 152 152 155 147 145 105 95 84 65 55 51 45 37 29 29 23 16 8 3 359 358 356 348 345 343 341 341 340 338 337
198 198 197 198 193 190 187 186 188 184 179 183 174 168 173 170 166 157 128 116 100 83 70 52 44 27 5 10 19 5 1 354 352 348 347 343 339 336 334 333 332 331 330
198 197 199 199 197 195 191 190 187 185 182 187 187 182 181 177 174 184 176 165 164 173 170 138 230 15 8 8 352 354 351 345 339 335 334 336 331 328 326 324 323 322 321
201 200 199 199 199 200 198 195 195 191 190 190 192 191 187 186 192 191 197 191 193 194 197 216 278 345 338 340 340 338 335 330 324 322 318 321 319 317 315 315 315 315 315
204 203 202 200 201 200 203 203 202 201 198 196 193 195 195 193 196 195 198 197 202 201 205 213 232 272 296 312 314 316 315 311 307 303 301 301 304 305 305 306 308 310 311
207 205 202 202 202 201 203 205 205 204 201 202 197 198 199 201 199 199 200 202 204 205 209 218 233 260 278 288 292 295 296 296 290 290 287 290 289 291 294 297 300 303 305
207 205 203 202 203 204 206 208 208 205 202 203 201 200 200 203 203 202 204 204 205 203 206 216 221 243 260 270 275 282 284 283 281 281 280 279 280 279 280 285 290 295 299
208 206 204 200 204 206 207 208 209 208 206 207 204 202 202 204 205 205 207 208 203 201 208 215 223 236 244 258 270 275 274 273 274 275 272 267 267 269 271 274 281 287 293
208 204 203 202 204 205 207 208 211 210 210 210 206 204 203 204 205 207 211 208 202 205 209 213 220 230 243 251 264 272 272 270 270 269 264 261 259 260 265 270 274 279 285
208 205 204 203 205 204 204 209 212 215 215 214 211 209 205 204 204 208 210 210 204 207 209 211 218 220 236 250 264 268 268 267 267 263 260 256 255 257 261 267 271 273 276
207 206 204 203 204 201 200 204 207 212 213 214 215 213 209 207 204 206 209 209 207 211 212 213 216 223 226 228 251 260 256 252 255 253 251 253 257 260 263 265 268 271 277
207 206 206 206 203 203 204 204 209 213 217 217 215 217 214 210 207 206 209 208 207 211 214 213 213 220 223 214 231 264 273 244 221 240 250 255 262 266 266 267 270 273 277
212 209 208 207 206 205 204 203 205 213 221 217 216 216 215 213 210 208 210 210 208 209 212 211 209 215 221 212 216 233 255 276 289 238 245 254 261 265 268 271 272 274 276
220 216 214 212 210 207 203 206 204 207 213 216 214 215 214 213 213 211 210 211 210 209 213 211 209 213 218 224 214 222 234 255 270 285 244 242 251 260 264 267 270 272 274
224 218 217 216 214 210 207 210 212 219 224 224 218 218 216 212 213 212 211 210 210 210 212 210 207 210 213 221 222 219 226 236 235 247 271 275 266 263 267 270 272 272 274
225 217 215 216 217 212 211 213 216 222 224 224 221 218 216 213 211 213 211 211 210 209 209 209 208 210 212 218 223 226 228 232 235 242 260 272 279 280 279 275 273 272 271